Naples, Italy

5:16 AM CEST on September 20, 2017 (GMT +0200)
Capodichino Mil

Weather History for LIRN - March, 2013

Change the Weather History Date:

Friday, March 29, 2013

  Actual Average Record
Temperature  
Mean Temperature 58 °F -  
Max Temperature 66 °F 65 °F 72 °F (2017)
Min Temperature 51 °F 47 °F 39 °F (1998)
Degree Days  
Heating Degree Days 6    
Growing Degree Days 8 (Base 50)    
Moisture  
Dew Point 54 °F    
Average Humidity 81    
Maximum Humidity 100    
Minimum Humidity 56    
Precipitation  
Precipitation 0.00 in 0.10 in - ()
Sea Level Pressure  
Sea Level Pressure 29.85 in    
Wind  
Wind Speed 4 mph ()    
Max Wind Speed 13 mph    
Max Gust Speed -    
Visibility 5.0 miles    
Events Fog , Rain    
Averages and records for this station are not official NWS values.
T = Trace of Precipitation, MM = Missing Value Source: Averaged Metar Reports

Daily Weather History Graph

Daily Weather History Graph

Search for Another Location

Airport or City:

Trip Planner

Search our weather history database for the weather conditions in past years. The results will help you decide how hot, cold, wet, or windy it might be!

Date:

Astronomy

Mar. 29, 2013 Rise Set
Actual Time 5:51 AM CET 6:24 PM CET
Civil Twilight 5:23 AM CET 6:52 PM CET
Nautical Twilight 4:51 AM CET 7:24 PM CET
Astronomical Twilight 4:17 AM CET 7:58 PM CET
Moon 9:06 PM CET (3/29) 6:46 AM CET (3/29)
Length of Visible Light 13h 28m
Length of Day
12h 33m
Waning Gibbous, 95% of the Moon is Illuminated
Mar 29
Waning Gibbous
Apr 3
Last Quarter
Apr 10
New
Apr 18
First Quarter
Apr 25
Full

Hourly Weather History & Observations

Time (CET) Temp. Dew Point Humidity Pressure Visibility Wind Dir Wind Speed Gust Speed Precip Events Conditions
12:20 AM 55.4 °F 53.6 °F 94% 29.89 in 3.1 mi Calm Calm - N/A Rain Light Rain
3:20 AM 55.4 °F 53.6 °F 94% 29.89 in 3.1 mi Variable 1.2 mph - N/A Rain Light Rain
3:50 AM 55.4 °F 53.6 °F 94% 29.86 in 3.1 mi NE 2.3 mph - N/A Rain Light Rain
4:20 AM 55.4 °F 53.6 °F 94% 29.86 in 3.1 mi Calm Calm - N/A Rain Light Rain
4:50 AM 51.8 °F 50.0 °F 94% 29.86 in 3.1 mi West 2.3 mph - N/A   Mostly Cloudy
5:20 AM 51.8 °F 51.8 °F 100% 29.86 in 3.1 mi North 1.2 mph - N/A   Scattered Clouds
5:50 AM 53.6 °F 51.8 °F 94% 29.86 in 3.1 mi East 2.3 mph - N/A Fog Shallow Fog
6:20 AM 53.6 °F 51.8 °F 94% 29.86 in 0.6 mi North - - N/A Fog Patches of Fog
6:50 AM 53.6 °F 53.6 °F 100% 29.89 in 3.1 mi NE 5.8 mph - N/A Fog Patches of Fog
7:20 AM 57.2 °F 53.6 °F 88% 29.89 in 6.2 mi Variable 2.3 mph - N/A   Unknown
7:50 AM 59.0 °F 55.4 °F 88% 29.89 in - Variable 2.3 mph - N/A   Clear
8:20 AM 62.6 °F 53.6 °F 72% 29.86 in - Variable 1.2 mph - N/A   Clear
8:50 AM 64.4 °F 51.8 °F 64% 29.86 in - Variable 3.5 mph - N/A   Clear
9:20 AM 64.4 °F 51.8 °F 64% 29.86 in - SSW 4.6 mph - N/A   Clear
9:50 AM 66.2 °F 51.8 °F 60% 29.86 in - South 6.9 mph - N/A   Clear
10:20 AM 66.2 °F 50.0 °F 56% 29.86 in - South 8.1 mph - N/A   Clear
10:50 AM 66.2 °F 51.8 °F 60% 29.86 in - SSW 6.9 mph - N/A   Clear
11:20 AM 64.4 °F 51.8 °F 64% 29.86 in - SSW 10.4 mph - N/A   Clear
11:50 AM 64.4 °F 51.8 °F 64% 29.86 in - SSW 11.5 mph - N/A   Clear
12:20 PM 66.2 °F 51.8 °F 60% 29.86 in - SSW 10.4 mph - N/A   Clear
12:50 PM 66.2 °F 53.6 °F 64% 29.86 in - SW 12.7 mph - N/A   Clear
1:20 PM 66.2 °F 53.6 °F 64% 29.86 in - SW 9.2 mph - N/A   Clear
1:50 PM 64.4 °F 53.6 °F 68% 29.83 in - SSW 11.5 mph - N/A   Clear
2:20 PM 64.4 °F 53.6 °F 68% 29.83 in - SSW 10.4 mph - N/A   Clear
2:50 PM 62.6 °F 53.6 °F 72% 29.83 in - South 9.2 mph - N/A   Clear
3:20 PM 62.6 °F 53.6 °F 72% 29.83 in 6.2 mi SSW 12.7 mph - N/A   Mostly Cloudy
3:50 PM 60.8 °F 53.6 °F 77% 29.83 in 6.2 mi SSW 11.5 mph - N/A   Mostly Cloudy
4:20 PM 62.6 °F 53.6 °F 72% 29.83 in 6.2 mi SSW 11.5 mph - N/A   Mostly Cloudy
4:50 PM 60.8 °F 53.6 °F 77% 29.83 in 6.2 mi SSW 10.4 mph - N/A   Scattered Clouds
5:20 PM 60.8 °F 55.4 °F 82% 29.80 in - North - - N/A   Unknown
5:50 PM 59.0 °F 55.4 °F 88% 29.80 in 6.2 mi SSW 11.5 mph - N/A   Scattered Clouds
6:20 PM 59.0 °F 53.6 °F 82% 29.80 in 6.2 mi SSW 9.2 mph - N/A   Scattered Clouds
6:50 PM 59.0 °F 55.4 °F 88% 29.83 in 6.2 mi SW 6.9 mph - N/A   Scattered Clouds
7:20 PM 59.0 °F 55.4 °F 88% 29.83 in 6.2 mi Variable 3.5 mph - N/A   Scattered Clouds
7:50 PM 59.0 °F 55.4 °F 88% 29.83 in 6.2 mi Calm Calm - N/A   Scattered Clouds
8:20 PM 59.0 °F 55.4 °F 88% 29.80 in 6.2 mi South 4.6 mph - N/A   Scattered Clouds
8:50 PM 59.0 °F 55.4 °F 88% 29.83 in 6.2 mi South 8.1 mph - N/A   Scattered Clouds
9:20 PM 57.2 °F 55.4 °F 94% 29.83 in 6.2 mi SSW 3.5 mph - N/A   Scattered Clouds
9:50 PM 57.2 °F 55.4 °F 94% 29.86 in 6.2 mi Variable 2.3 mph - N/A   Scattered Clouds
10:20 PM 57.2 °F 55.4 °F 94% 29.83 in 6.2 mi SSE 3.5 mph - N/A   Scattered Clouds
10:50 PM 57.2 °F 55.4 °F 94% 29.83 in 6.2 mi South 8.1 mph - N/A   Scattered Clouds
11:20 PM 57.2 °F 55.4 °F 94% 29.80 in 5.0 mi South 9.2 mph - N/A   Partly Cloudy
11:50 PM 59.0 °F 55.4 °F 88% 29.80 in 5.0 mi SSE 3.5 mph - N/A   Partly Cloudy